Location: Festilli
(46.4000°N, 11.6667°E)
Time: 14:22:49
(UTC+00:00)

Cosmos 2074 Rocket - Pass Details

Date: 03 March 2021
Orbit: 967 x 986 km, 82.9° (Epoch: 20 April)

Event Time Altitude Azimuth Distance (km) Brightness Sun altitude
Rises 17:33:17 0° 182° (S) 3,676 7.1 -6.1°
Reaches altitude 10° 17:35:47 10° 181° (S) 2,730 6.4 -6.6°
Maximum altitude 17:42:02 80° 96° (E) 1,000 4.0 -7.6°
Drops below altitude 10° 17:48:19 10° 11° (N) 2,735 6.2 -8.7°
Sets 17:50:50 0° 10° (N) 3,684 6.9 -9.1°
